[source: ADDS]
METAR
EDVE 111720Z 22005KT 9999 RA FEW010 OVC014 02/01 Q1005

TAF EDVE 111700Z 1118/1121 19006KT 9999 SCT012 BKN020 TEMPO 1118/1121 4500 -RADZ BKN012 PROB30 TEMPO 1118/1121 BKN007 EDDV 111720Z 18005KT 9999 RADZ BKN021 OVC026 03/02 Q1005 BECMG NSW

TAF EDDV 111700Z 1118/1218 19006KT 9999 SCT012 BKN020 TEMPO 1118/1209 4500 BR BKN012 PROB30 TEMPO 1118/1124 RADZ BKN007 ETHS 111620Z 20006KT 4000 -RADZ BR BKN002 03/02 Q1005 AMB YLO TEMPO AMB

TAF AMD ETHS 111536Z 1115/1124 21005KT 5000 -RADZ BKN004 BKN007 TEMPO 1115/1124 22005KT 3000 DZ BKN002 BKN005 ETHC 111642Z 19005KT 9999 -RADZ SCT006 BKN017 03/02 Q1005 WHT WHT TEMPO YLO

TAF AMD ETHC 111700Z 1115/1124 17005KT 8000 NSW BKN007 BKN015 TEMPO 1115/1124 20003KT 3000 DZRA BKN005 OVC007 CANCEL 1730 EDVK 111720Z 17005KT 8000 -SNRA SCT009 BKN014 01/00 Q1005

TAF EDVK 111700Z 1118/1203 18005KT 9000 SCT009 BKN015 TEMPO 1118/1120 2500 SNRA BKN005 OVC010 PROB40 TEMPO 1120/1203 2000 BR BKN003
TAF
TAF EDVE 111700Z 1118/1121 19006KT 9999 SCT012 BKN020 TEMPO 1118/1121 4500 -RADZ BKN012 PROB30 TEMPO 1118/1121 BKN007

TAF EDDV 111700Z 1118/1218 19006KT 9999 SCT012 BKN020 TEMPO 1118/1209 4500 BR BKN012 PROB30 TEMPO 1118/1124 RADZ BKN007

TAF AMD ETHS 111536Z 1115/1124 21005KT 5000 -RADZ BKN004 BKN007 TEMPO 1115/1124 22005KT 3000 DZ BKN002 BKN005

TAF AMD ETHC 111700Z 1115/1124 17005KT 8000 NSW BKN007 BKN015 TEMPO 1115/1124 20003KT 3000 DZRA BKN005 OVC007 CANCEL 1730

TAF EDVK 111700Z 1118/1203 18005KT 9000 SCT009 BKN015 TEMPO 1118/1120 2500 SNRA BKN005 OVC010 PROB40 TEMPO 1120/1203 2000 BR BKN003

SR / SS: 07:16 / 15:05 UTC (EDVE 2019-12-11)
Stefan hat die praktische Prüfung bestanden! Herzlichen Glückwunsch und Always Happy Landings! +++ Ein weiteres Mitglied hat die Prüfung zum Fluglehrer gemeistert. Glückwunsch Nico und viel Erfolg beim Ausbilden! +++ Florian Hansmann ist ab sofort als Fluglehrer für die FFG tätig! Danke für das Engagement und viel Spaß mit deinen zukünftigen Schülern! +++ Willkommen im Verein Michael und viel Erfolg für deine Ausbildung! +++ Herzlich Willkommen bei der FFG Jens! +++ Uwe hat die PPL-Prüfung bestanden! Herzlichen Glückwunsch und Always Happy Landings!! +++ Hallo und herzlich Willkommen Lothar! Wir wünschen viel Spaß und Erfolg für die Ausbildung! +++ Und schon wieder hat sich ein Schüler freigeflogen, herzlichen Glückwunsch Sebastian zum ersten Solo! +++ Auch Mathias hat sein erstes Solo hinter sich gebracht. Herzlichen Glückwunsch und weiterhin Happy Landings!

 

Das Prinzip des Heizgerätes zum Vorheizen unserer Flugzeuge ist einfach: Ein Gasbrenner erhitzt Luft und bläst sie in eine Blechkiste. Dort beschleunigt ein großer Lüfter die Luft und drückt sie durch Luftschläuche in den Motorraum eines Flugzeuges. Nach etwa 20-30 Minuten Vorheizzeit ist eine ausreichende Temperatur zum Motorstart vorhanden.

Weiterlesen ...

Auch im Winter stehen unsere Flugzeuge sicher untergebracht in unserer Halle. Schneelast- und sturmwinderprobt ist sie bereits und hat diese Wettereinflüsse prima überstanden. Im Winter sind bei Schnee und Eis ein paar Erfahrungswerte nützlich:

Weiterlesen ...

Die Halle erlaubt eine einfache Aufstellung der Luftfahrzeuge. Jedem Flugzeug ist ein fester Platz zugewiesen der es erlaubt, mit geringem Aufwand das gewünschte Flugzeug nach vorne zu holen. Ziel bei der gewählten Aufstellung ist es,

Weiterlesen ...

Das Tor der Halle ist ein sogenanntes Planentor, es funktioniert ungefähr so wie ein Duschvorhang. Die linke und die rechte Hälfte des Tores waren in der Mitte durch sechs Gurte verbunden (drei an der Innenseite, drei an der Außenseite), wenn das Tor geschlossen ist.

Der obere Gurt (innen und außen) ist für normal große Leute

Weiterlesen ...

Die installierte elektrische Anlage ist wartungsfrei. Das Licht wird automatisch, durch Bewegungssensoren gesteuert, ein- und ausgeschaltet.

Weiterlesen ...

Letztes NOTAM EDVE
von 07.01.2020 0900Z bis 07.01.2020 1100Z
BRUENKENDORF DVOR/DME BKD 117.7MHZ/CH124X, DME PART ON MAINT. DO NOT USE, FALSE INDICATIONS POSS.

Letztes NOTAM EDCB
von 21.12.2019 0000Z bis 10.01.2020 2359Z
AERODROME HOURS OF SERVICE DEC 21 - JAN 03 CLOSED JAN 04 - 10 PPR PPR VIA PHONE 0049 162 3223761, 0049 173 9536362, 0049 39483 215. <[more]

von 11.12.2019 1602Z bis 09.03.2020 2359Z
AD CLSD.

Letztes NOTAM EDVM
von 30.11.2019 1100Z bis 29.02.2020 1700Z
GRASS RWY 07/25 CLSD.

Letztes NOTAM EDOV
von 24.12.2019 0000Z bis 06.01.2020 2359Z
AD CLOSED.

Letztes NOTAM EDVI
von 15.12.2019 0000Z bis 29.02.2020 2259Z
AERODROME AVBL PPR. PPR REQ TEL. +49(0)163-5744126 OR +49(0)5271-6999060.

Letztes NOTAM EDDV
von 13.01.2020 0600Z bis 30.03.2020 1600Z
MON-FRI 0600-1600
CONSTRUCTION EQPT IN DEP SECTOR RWY 27L FOR ALL IFR DEP. SHORTEST PSN TO THR RWY 27L : 522730N 0093954E. ELEV 21 [more]


Letztes NOTAM EDVK
von 29.12.2019 0001Z bis 01.01.2020 1900Z
AD CLSD JAN 01 0630-1900. PPR FROM 0730-0830 AND FROM 1700-1900. REQ PPR UNTIL DEC 29 1700.

          aerodata150     Radio38